Regional Weather Roundup
Issued by NWS

Home | Current Version | Previous Version | Text Only | Print | Product List | Glossary Off
Versions: 1 2 3 4 5 6 7 8 9 10 11 12 13 14 15 16 17 18 19 20 21 22 23 24 25 26 27 28 29 30 31 32 33 34 35 36 37 38 39 40 41 42 43 44 45 46 47 48 49 50

000
ASUS43 KLOT 061921
RWRIL

ILLINOIS REGIONAL WEATHER ROUNDUP
NATIONAL WEATHER SERVICE CHICAGO/ROMEOVILLE IL
200 PM CDT MON JUL 06 2015

NOTE: "FAIR" INDICATES FEW OR NO CLOUDS BELOW 12,000 FEET WITH NO
SIGNIFICANT WEATHER AND/OR OBSTRUCTIONS TO VISIBILITY.

* THESE STATIONS ARE NOT UNDER NWS QUALITY CONTROL. THEY ALSO MAY NOT
  REPORT WEATHER SUCH AS PRECIPITATION OR FOG.

ILZ001-002-007-009-015-016-024-062000-
NORTHWEST ILLINOIS

CITY           SKY/WX    TMP DP  RH WIND       PRES   REMARKS
MOLINE         CLOUDY    81  71  71 SW10      29.88F HX  85
STERLING*      CLOUDY    79  73  83 S6        29.89F HX  82
SAVANNA*       CLOUDY    75  72  89 S10       29.88S
$$

ILZ003-004-008-010-011-017-018-062000-
NORTH CENTRAL ILLINOIS

CITY           SKY/WX    TMP DP  RH WIND       PRES   REMARKS
ROCKFORD       CLOUDY    75  70  84 S7        29.89F
FREEPORT*      CLOUDY    74  70  88 S14       29.89F
ROCHELLE*      CLOUDY    73  71  94 S6        29.91F
DE KALB*       LGT RAIN  69  68  96 SE7       29.93F
PERU*          CLOUDY    81  72  74 SW7       29.92F HX  85
$$

ILZ005-006-012>014-019>023-062000-
NORTHEAST ILLINOIS

CITY           SKY/WX    TMP DP  RH WIND       PRES   REMARKS
CHICAGO-OHARE  CLOUDY    79  66  64 W23G32    29.92R THUNDER HX  81
CHICAGO-MIDWAY CLOUDY    88  68  51 S16G25    29.91F HX  91
AURORA         TSTM      72  69  90 VRB3      29.93F
LANSING*       PTSUNNY   85  67  53 S14G21    29.93F HX  87
JOLIET*        CLOUDY    85  73  67 S12       29.92F HX  91
WAUKEGAN       TSTM      70  68  93 VRB6G18   29.92R VSB 1/2
DUPAGE AIRPORT TSTM      71  68  90 CALM      29.91F
KANKAKEE*      PTSUNNY   86  73  64 S14       29.94F HX  92
WHEELING       LGT RAIN  77  67  71 W14G33    29.94R
MORRIS*        CLOUDY    85  73  65 S14G21    29.91S HX  91
ROMEOVILLE*    CLOUDY    84  69  59 S14       29.92S HX  87
NORTHERLY ISL    N/A     84  66  54 SW12        N/A  HX  86
$$

LMZ740>746-062000-
SOUTHERN LAKE MICHIGAN

STATION/POSITION SKY/WX   TEMP    WIND        PRES    VSBY  WAVE
                          AIR SEA DIR/SP/G                  HT/PER
                          (F)     (DEG/KT/KT) (MB)    (MI)  (FT/S)
HARRISON CRIB              78     180/ 15/ 17   N/A
BURNHAM HARBOR             84     190/ 14/ 16   N/A
CALUMET HARBOR             83     170/ 12/ 18   N/A
BURNS HARBOR               83     180/ 14/ 19 1014.6F
MICHIGAN CITY              81     150/ 12/ 16   N/A
MICHIGAN CITY 6N           77 67  190/ 10/ 16   N/A           1/ 2
ST. JOSEPH                 74 67  240/  8/  8   N/A           1/ 2
$$

ILZ025>027-034>036-040-047-049-050-058-095>099-062000-
WEST-CENTRAL ILLINOIS

CITY           SKY/WX    TMP DP  RH WIND       PRES   REMARKS
QUINCY         CLOUDY    85  75  72 S14       29.92F HX  93
GALESBURG*     CLOUDY    81  73  78 S10G16    29.91S HX  86
MACOMB*        CLOUDY    83  74  73 SW14      29.93F HX  90
JACKSONVILLE*  CLOUDY    86  76  70 S12       29.93F HX  96
PITTSFIELD*    CLOUDY    85  74  70 S6        29.94F HX  92
$$

ILZ028>032-037-038-041>044-048-051>054-059>061-062000-
CENTRAL ILLINOIS

CITY           SKY/WX    TMP DP  RH WIND       PRES   REMARKS
PONTIAC        CLOUDY    86  76  71 SW13G20   29.93F HX  95
BLOOMINGTON    CLOUDY    85  77  77 SW15      29.95F HX  95
DECATUR        PTSUNNY   85  74  69 S15       29.96F HX  92
PEORIA         CLOUDY    86  75  69 SW12      29.91F HX  95
LACON*         CLOUDY    82  74  77 SW8       29.90F HX  87
LINCOLN*       PTSUNNY   87  74  64 S10G17    29.93F HX  96
SPRINGFIELD    PTSUNNY   88  76  67 SW12      29.94F HX  99
TAYLORVILLE    PTSUNNY   82  75  78 S10       29.97F HX  89
$$

ILZ033-039-045-046-055>057-062-063-062000-
EAST-CENTRAL ILLINOIS

CITY           SKY/WX    TMP DP  RH WIND       PRES   REMARKS
CHAMPAIGN      PTSUNNY   86  73  65 S14       29.97F HX  93
DANVILLE*      PTSUNNY   83  72  71 S12       29.95F HX  88
RANTOUL*       MOSUNNY   87  74  65 S12G20    29.96F HX  96
MATTOON        PTSUNNY   84  73  69 S13G20    29.98F HX  90
PARIS*         MOSUNNY   84  72  66 S10       30.00F HX  90
$$

ILZ079-100>102-062000-
SOUTHWEST ILLINOIS

CITY           SKY/WX    TMP DP  RH WIND       PRES   REMARKS
BELLEVILLE     PTSUNNY   88  78  72 S16       29.95F HX 102
CAHOKIA*       TSTM      80  64  58 W10G26    29.96F HX  82
SPARTA*        MOSUNNY   85  75  70 S13       30.01S HX  94
$$

ILZ064>066-069>071-074>076-080>082-084>086-088>090-092>094-062000-
SOUTH-CENTRAL ILLINOIS

CITY           SKY/WX    TMP DP  RH WIND       PRES   REMARKS
CARBONDALE     MOSUNNY   84  73  69 SW15      30.01F HX  90
CAIRO*         MOSUNNY   83  73  72 S9        30.04F HX  89
EFFINGHAM*     PTSUNNY   85  70  60 S8        30.00F HX  89
MARION         PTSUNNY   86  75  70 S12       30.02F HX  95
MT. VERNON     CLOUDY    84  73  70 S13       30.01F HX  91
CENTRALIA*     MOSUNNY   84  72  67 S12       30.00S HX  90
SALEM*         CLOUDY    85  74  68 S8        30.00S HX  92
$$

ILZ067-068-072-073-078-083-087-091-062000-
SOUTHEAST ILLINOIS

CITY           SKY/WX    TMP DP  RH WIND       PRES   REMARKS
LAWRENCEVILLE  MOSUNNY   85  73  67 S15       30.01F HX  91
FLORA*         SUNNY     84  73  69 SW13      30.00F HX  91
FAIRFIELD*     CLOUDY    84  75  74 S10G16    30.00F HX  91
HARRISBURG*    MOSUNNY   85  74  70 SW10G18   30.02F HX  92
ROBINSON*      MOSUNNY   86  71  60 S12       30.01F HX  91
CARMI*         PTSUNNY   85  69  58 S13       30.01F HX  89
$$

ABBREVIATIONS USED IN REMARKS
   TC - TEMPERATURE IN CELSIUS
  WCI - WIND CHILL INDEX
   HX - HEAT INDEX
  VSB - VISIBILITY
$$




USA.gov is the U.S. government's official web portal to all federal, state and local government web resources and services.